Time,TemperatureF,DewpointF,PressureIn,WindDirection,WindDirectionDegrees,WindSpeedMPH,WindSpeedGustMPH,Humidity,HourlyPrecipIn,Conditions,Clouds,dailyrainin,SoftwareType,DateUTC
2013-01-25 00:00:00,22.5,4.3,30.18,NW,315,2.3,2.3,45,0.00,CLR,,0.00,WeatherDisplay:10.37,2013-01-25 05:00:00,
2013-01-25 00:01:00,22.3,4.1,30.18,West,270,2.3,2.3,45,0.00,CLR,,0.00,WeatherDisplay:10.37,2013-01-25 05:01:00,
2013-01-25 00:02:00,22.5,4.3,30.17,SW,225,1.2,0.0,45,0.00,CLR,,0.00,WeatherDisplay:10.37,2013-01-25 05:02:00,
2013-01-25 00:07:00,22.3,3.6,30.18,South,180,1.2,0.0,44,0.00,CLR,,0.00,WeatherDisplay:10.37,2013-01-25 05:07:00,
2013-01-25 00:12:00,22.3,3.6,30.18,South,180,2.3,2.3,44,0.00,CLR,,0.00,WeatherDisplay:10.37,2013-01-25 05:12:00,
2013-01-25 00:17:00,22.5,3.8,30.18,North,0,3.5,3.5,44,0.00,CLR,,0.00,WeatherDisplay:10.37,2013-01-25 05:17:00,
2013-01-25 00:22:00,22.3,3.6,30.18,NW,315,1.2,1.2,44,0.00,CLR,,0.00,WeatherDisplay:10.37,2013-01-25 05:22:00,
2013-01-25 00:27:00,22.1,3.5,30.17,SE,135,2.3,0.0,44,0.00,CLR,,0.00,WeatherDisplay:10.37,2013-01-25 05:27:00,
2013-01-25 00:32:00,22.1,3.5,30.17,South,180,3.5,3.5,44,0.00,CLR,,0.00,WeatherDisplay:10.37,2013-01-25 05:32:00,
2013-01-25 00:37:00,22.3,3.6,30.16,SE,135,1.2,1.6,44,0.00,CLR,,0.00,WeatherDisplay:10.37,2013-01-25 05:37:00,
2013-01-25 00:42:00,22.3,3.6,30.16,NNE,22,0.0,0.0,44,0.00,CLR,,0.00,WeatherDisplay:10.37,2013-01-25 05:42:00,
2013-01-25 00:47:00,22.3,3.6,30.16,SW,225,1.2,1.2,44,0.00,CLR,,0.00,WeatherDisplay:10.37,2013-01-25 05:47:00,
2013-01-25 00:52:00,22.1,3.5,30.15,WNW,292,2.3,2.3,44,0.00,CLR,,0.00,WeatherDisplay:10.37,2013-01-25 05:52:00,
2013-01-25 00:57:00,22.3,3.6,30.16,South,180,4.6,4.6,44,0.00,CLR,,0.00,WeatherDisplay:10.37,2013-01-25 05:57:00,
2013-01-25 01:02:00,22.5,3.3,30.16,East,90,2.3,2.3,43,0.00,CLR,,0.00,WeatherDisplay:10.37,2013-01-25 06:02:00,
2013-01-25 01:07:00,22.5,2.8,30.16,South,180,3.5,3.5,42,0.00,CLR,,0.00,WeatherDisplay:10.37,2013-01-25 06:07:00,
2013-01-25 01:12:00,22.5,2.8,30.16,SE,135,2.3,2.3,42,0.00,CLR,,0.00,WeatherDisplay:10.37,2013-01-25 06:12:00,
2013-01-25 01:17:00,22.5,2.3,30.16,SW,225,1.2,1.2,41,0.00,CLR,,0.00,WeatherDisplay:10.37,2013-01-25 06:17:00,
2013-01-25 01:22:00,22.3,2.1,30.17,SE,135,2.3,0.0,41,0.00,CLR,,0.00,WeatherDisplay:10.37,2013-01-25 06:22:00,
2013-01-25 01:27:00,22.1,1.9,30.17,South,180,3.5,0.0,41,0.00,CLR,,0.00,WeatherDisplay:10.37,2013-01-25 06:27:00,
2013-01-25 01:32:00,22.1,1.9,30.18,East,90,1.2,0.0,41,0.00,CLR,,0.00,WeatherDisplay:10.37,2013-01-25 06:32:00,
2013-01-25 01:37:00,21.9,1.8,30.18,SE,135,1.2,1.2,41,0.00,CLR,,0.00,WeatherDisplay:10.37,2013-01-25 06:37:00,
2013-01-25 01:42:00,21.6,2.5,30.18,SE,135,1.2,1.2,43,0.00,CLR,,0.00,WeatherDisplay:10.37,2013-01-25 06:42:00,
2013-01-25 01:47:00,21.2,2.6,30.18,SE,135,1.2,1.2,44,0.00,CLR,,0.00,WeatherDisplay:10.37,2013-01-25 06:47:00,
2013-01-25 01:52:00,21.0,3.0,30.19,SE,135,0.0,0.0,45,0.00,CLR,,0.00,WeatherDisplay:10.37,2013-01-25 06:52:00,
2013-01-25 01:57:00,20.8,3.3,30.19,North,0,1.2,0.0,46,0.00,CLR,,0.00,WeatherDisplay:10.37,2013-01-25 06:57:00,
2013-01-25 02:02:00,20.8,3.3,30.18,North,0,0.0,0.0,46,0.00,CLR,,0.00,WeatherDisplay:10.37,2013-01-25 07:02:00,
2013-01-25 02:07:00,20.7,3.1,30.19,North,0,0.0,0.0,46,0.00,CLR,,0.00,WeatherDisplay:10.37,2013-01-25 07:07:00,
2013-01-25 02:12:00,20.5,3.4,30.18,SE,135,6.9,0.0,47,0.00,CLR,,0.00,WeatherDisplay:10.37,2013-01-25 07:12:00,
2013-01-25 02:17:00,20.1,4.4,30.19,SE,135,1.2,1.2,50,0.00,CLR,,0.00,WeatherDisplay:10.37,2013-01-25 07:17:00,
2013-01-25 02:22:00,20.1,4.9,30.19,SE,135,1.2,0.0,51,0.00,CLR,,0.00,WeatherDisplay:10.37,2013-01-25 07:22:00,
2013-01-25 02:27:00,20.1,4.4,30.19,NW,315,0.0,0.0,50,0.00,CLR,,0.00,WeatherDisplay:10.37,2013-01-25 07:27:00,
2013-01-25 02:32:00,20.1,4.4,30.19,NW,315,0.0,0.0,50,0.00,CLR,,0.00,WeatherDisplay:10.37,2013-01-25 07:32:00,
2013-01-25 02:37:00,20.1,4.0,30.20,NW,315,0.0,0.0,49,0.00,CLR,,0.00,WeatherDisplay:10.37,2013-01-25 07:37:00,
2013-01-25 02:42:00,20.3,4.6,30.20,SW,225,1.2,0.0,50,0.00,CLR,,0.00,WeatherDisplay:10.37,2013-01-25 07:42:00,
2013-01-25 02:47:00,20.1,4.9,30.19,West,270,0.0,0.0,51,0.00,CLR,,0.00,WeatherDisplay:10.37,2013-01-25 07:47:00,
2013-01-25 02:52:00,19.8,4.5,30.19,West,270,0.0,0.0,51,0.00,CLR,,0.00,WeatherDisplay:10.37,2013-01-25 07:52:00,
2013-01-25 02:57:00,19.9,5.1,30.19,North,0,1.2,0.0,52,0.00,CLR,,0.00,WeatherDisplay:10.37,2013-01-25 07:57:00,
2013-01-25 03:02:00,19.6,4.8,30.18,East,90,0.0,0.0,52,0.00,CLR,,0.00,WeatherDisplay:10.37,2013-01-25 08:02:00,
2013-01-25 03:07:00,19.4,4.2,30.18,East,90,0.0,0.0,51,0.00,CLR,,0.00,WeatherDisplay:10.37,2013-01-25 08:07:00,
2013-01-25 03:12:00,19.2,2.7,30.19,NW,315,1.2,0.0,48,0.00,CLR,,0.00,WeatherDisplay:10.37,2013-01-25 08:12:00,
2013-01-25 03:17:00,19.2,2.7,30.19,NW,315,0.0,0.0,48,0.00,CLR,,0.00,WeatherDisplay:10.37,2013-01-25 08:17:00,
2013-01-25 03:22:00,19.0,3.0,30.18,NNW,338,1.2,1.2,49,0.00,CLR,,0.00,WeatherDisplay:10.37,2013-01-25 08:22:00,
2013-01-25 03:27:00,19.2,4.0,30.19,NW,315,1.2,1.2,51,0.00,CLR,,0.00,WeatherDisplay:10.37,2013-01-25 08:27:00,
2013-01-25 03:32:00,19.2,4.0,30.18,North,0,1.2,1.2,51,0.00,CLR,,0.00,WeatherDisplay:10.37,2013-01-25 08:32:00,
2013-01-25 03:37:00,19.2,4.4,30.17,NW,315,2.3,2.3,52,0.00,CLR,,0.00,WeatherDisplay:10.37,2013-01-25 08:37:00,
2013-01-25 03:42:00,19.4,6.2,30.18,SE,135,0.0,0.0,56,0.00,CLR,,0.00,WeatherDisplay:10.37,2013-01-25 08:42:00,
2013-01-25 03:47:00,19.2,4.0,30.17,SE,135,0.0,0.0,51,0.00,CLR,,0.00,WeatherDisplay:10.37,2013-01-25 08:47:00,
2013-01-25 03:52:00,19.2,4.4,30.17,East,90,0.0,0.0,52,0.00,CLR,,0.00,WeatherDisplay:10.37,2013-01-25 08:52:00,
2013-01-25 03:57:00,19.2,4.9,30.17,NE,45,0.0,0.0,53,0.00,CLR,,0.00,WeatherDisplay:10.37,2013-01-25 08:57:00,
2013-01-25 04:02:00,19.2,4.9,30.17,NE,45,0.0,0.0,53,0.00,CLR,,0.00,WeatherDisplay:10.37,2013-01-25 09:02:00,
2013-01-25 04:07:00,19.4,6.6,30.16,NE,45,0.0,0.0,57,0.00,CLR,,0.00,WeatherDisplay:10.37,2013-01-25 09:07:00,
2013-01-25 04:12:00,19.4,6.6,30.16,North,0,1.2,0.0,57,0.00,CLR,,0.00,WeatherDisplay:10.37,2013-01-25 09:12:00,
2013-01-25 04:17:00,19.4,6.2,30.16,SE,135,0.0,0.0,56,0.00,CLR,,0.00,WeatherDisplay:10.37,2013-01-25 09:17:00,
2013-01-25 04:22:00,19.4,6.6,30.16,SE,135,0.0,0.0,57,0.00,CLR,,0.00,WeatherDisplay:10.37,2013-01-25 09:22:00,
2013-01-25 04:27:00,19.2,4.9,30.16,SE,135,0.0,0.0,53,0.00,CLR,,0.00,WeatherDisplay:10.37,2013-01-25 09:27:00,
2013-01-25 04:32:00,19.2,4.9,30.17,North,0,1.2,0.0,53,0.00,CLR,,0.00,WeatherDisplay:10.37,2013-01-25 09:32:00,
2013-01-25 04:37:00,19.4,7.0,30.16,North,0,1.2,0.0,58,0.00,CLR,,0.00,WeatherDisplay:10.37,2013-01-25 09:37:00,
2013-01-25 04:43:00,19.8,7.4,30.16,North,0,0.0,0.0,58,0.00,CLR,,0.00,WeatherDisplay:10.37,2013-01-25 09:43:00,
2013-01-25 04:48:00,19.9,7.9,30.17,West,270,1.2,0.0,59,0.00,CLR,,0.00,WeatherDisplay:10.37,2013-01-25 09:48:00,
2013-01-25 04:53:00,20.1,8.4,30.17,West,270,1.2,1.2,60,0.00,CLR,,0.00,WeatherDisplay:10.37,2013-01-25 09:53:00,
2013-01-25 04:58:00,20.1,8.1,30.17,SE,135,0.0,0.0,59,0.00,CLR,,0.00,WeatherDisplay:10.37,2013-01-25 09:58:00,
2013-01-25 05:03:00,20.3,8.6,30.16,SE,135,0.0,0.0,60,0.00,CLR,,0.00,WeatherDisplay:10.37,2013-01-25 10:03:00,
2013-01-25 05:08:00,20.3,8.6,30.18,NW,315,0.0,0.0,60,0.00,CLR,,0.00,WeatherDisplay:10.37,2013-01-25 10:08:00,
2013-01-25 05:13:00,20.3,8.6,30.17,NW,315,1.2,0.0,60,0.00,CLR,,0.00,WeatherDisplay:10.37,2013-01-25 10:13:00,
2013-01-25 05:18:00,20.7,9.0,30.17,SE,135,1.2,0.0,60,0.00,CLR,,0.00,WeatherDisplay:10.37,2013-01-25 10:18:00,
2013-01-25 05:20:00,28.0,23.2,29.83,North,0,0.0,0.0,82,0.00,CLR,,0.00,WeatherDisplay:10.37,2013-01-25 10:20:00,
2013-01-25 05:23:00,20.7,9.3,30.17,North,0,1.2,0.0,61,0.00,CLR,,0.00,WeatherDisplay:10.37,2013-01-25 10:23:00,
2013-01-25 05:28:00,20.7,9.3,30.16,East,90,0.0,0.0,61,0.00,CLR,,0.00,WeatherDisplay:10.37,2013-01-25 10:28:00,
2013-01-25 05:30:00,28.0,23.2,29.83,North,0,0.0,0.0,82,0.00,CLR,,0.00,WeatherDisplay:10.37,2013-01-25 10:30:00,
2013-01-25 05:33:00,20.7,9.0,30.16,NE,45,0.0,0.0,60,0.00,CLR,,0.00,WeatherDisplay:10.37,2013-01-25 10:33:00,
2013-01-25 05:38:00,20.5,8.8,30.17,NW,315,1.2,1.2,60,0.00,CLR,,0.00,WeatherDisplay:10.37,2013-01-25 10:38:00,
2013-01-25 05:40:00,28.0,23.2,29.83,North,0,0.0,0.0,82,0.00,CLR,,0.00,WeatherDisplay:10.37,2013-01-25 10:40:00,
2013-01-25 05:43:00,20.7,9.0,30.18,NW,315,2.3,2.3,60,0.00,CLR,,0.00,WeatherDisplay:10.37,2013-01-25 10:43:00,
2013-01-25 05:48:00,20.8,9.5,30.17,SE,135,0.0,0.0,61,0.00,CLR,,0.00,WeatherDisplay:10.37,2013-01-25 10:48:00,
2013-01-25 05:50:00,28.0,23.2,29.83,North,0,0.0,0.0,82,0.00,CLR,,0.00,WeatherDisplay:10.37,2013-01-25 10:50:00,
2013-01-25 05:53:00,20.7,9.3,30.17,NW,315,2.3,2.3,61,0.00,CLR,,0.00,WeatherDisplay:10.37,2013-01-25 10:53:00,
2013-01-25 05:58:00,20.8,9.5,30.17,West,270,1.2,0.0,61,0.00,CLR,,0.00,WeatherDisplay:10.37,2013-01-25 10:58:00,
2013-01-25 06:00:00,28.0,23.2,29.83,North,0,0.0,0.0,82,0.00,CLR,,0.00,WeatherDisplay:10.37,2013-01-25 11:00:00,
2013-01-25 06:03:00,20.8,9.5,30.16,West,270,0.0,0.0,61,0.00,CLR,,0.00,WeatherDisplay:10.37,2013-01-25 11:03:00,
2013-01-25 06:08:00,21.0,9.3,30.17,SE,135,1.2,0.0,60,0.00,CLR,,0.00,WeatherDisplay:10.37,2013-01-25 11:08:00,
2013-01-25 06:10:00,28.0,23.2,29.83,North,0,0.0,0.0,82,0.00,CLR,,0.00,WeatherDisplay:10.37,2013-01-25 11:10:00,
2013-01-25 06:13:00,21.0,9.3,30.16,NW,315,1.2,0.0,60,0.00,CLR,,0.00,WeatherDisplay:10.37,2013-01-25 11:13:00,
2013-01-25 06:18:00,21.2,8.7,30.17,SE,135,0.0,0.0,58,0.00,CLR,,0.00,WeatherDisplay:10.37,2013-01-25 11:18:00,
2013-01-25 06:20:00,28.0,23.2,29.83,North,0,0.0,0.0,82,0.00,CLR,,0.00,WeatherDisplay:10.37,2013-01-25 11:20:00,
2013-01-25 06:23:00,21.2,8.3,30.16,SE,135,1.2,0.0,57,0.00,CLR,,0.00,WeatherDisplay:10.37,2013-01-25 11:23:00,
2013-01-25 06:28:00,21.4,8.9,30.17,SE,135,0.0,0.0,58,0.00,CLR,,0.00,WeatherDisplay:10.37,2013-01-25 11:28:00,
2013-01-25 06:30:00,28.0,23.2,29.83,North,0,0.0,0.0,82,0.00,CLR,,0.00,WeatherDisplay:10.37,2013-01-25 11:30:00,
2013-01-25 06:33:00,21.4,9.3,30.17,SE,135,0.0,0.0,59,0.00,CLR,,0.00,WeatherDisplay:10.37,2013-01-25 11:33:00,
2013-01-25 06:38:00,21.4,9.6,30.17,SE,135,0.0,0.0,60,0.00,CLR,,0.00,WeatherDisplay:10.37,2013-01-25 11:38:00,
2013-01-25 06:40:00,28.0,23.2,29.83,North,0,0.0,0.0,82,0.00,CLR,,0.00,WeatherDisplay:10.37,2013-01-25 11:40:00,
2013-01-25 06:43:00,21.4,10.0,30.16,SE,135,0.0,0.0,61,0.00,CLR,,0.00,WeatherDisplay:10.37,2013-01-25 11:43:00,
2013-01-25 06:48:00,21.4,10.4,30.16,SE,135,1.2,0.0,62,0.00,CLR,,0.00,WeatherDisplay:10.37,2013-01-25 11:48:00,
2013-01-25 06:50:00,28.0,23.2,29.83,North,0,0.0,0.0,82,0.00,CLR,,0.00,WeatherDisplay:10.37,2013-01-25 11:50:00,
2013-01-25 06:53:00,21.4,10.4,30.17,North,0,1.2,0.0,62,0.00,CLR,,0.00,WeatherDisplay:10.37,2013-01-25 11:53:00,
2013-01-25 06:58:00,21.6,10.5,30.17,SE,135,0.0,0.0,62,0.00,CLR,,0.00,WeatherDisplay:10.37,2013-01-25 11:58:00,
2013-01-25 07:00:00,28.0,23.2,29.83,North,0,0.0,0.0,82,0.00,CLR,,0.00,WeatherDisplay:10.37,2013-01-25 12:00:00,
2013-01-25 07:03:00,21.7,10.7,30.17,NW,315,1.2,1.2,62,0.00,CLR,,0.00,WeatherDisplay:10.37,2013-01-25 12:03:00,
2013-01-25 07:08:00,21.9,10.5,30.16,NW,315,2.3,2.3,61,0.00,CLR,,0.00,WeatherDisplay:10.37,2013-01-25 12:08:00,
2013-01-25 07:10:00,28.0,23.2,29.83,North,0,0.0,0.0,82,0.00,CLR,,0.00,WeatherDisplay:10.37,2013-01-25 12:10:00,
2013-01-25 07:13:00,22.1,9.9,30.16,SE,135,0.0,0.0,59,0.00,CLR,,0.00,WeatherDisplay:10.37,2013-01-25 12:13:00,
2013-01-25 07:18:00,22.3,9.7,30.15,NW,315,0.0,0.0,58,0.00,CLR,,0.00,WeatherDisplay:10.37,2013-01-25 12:18:00,
2013-01-25 07:20:00,28.0,23.2,29.83,North,0,0.0,0.0,82,0.00,CLR,,0.00,WeatherDisplay:10.37,2013-01-25 12:20:00,
2013-01-25 07:23:00,22.5,9.5,30.16,SE,135,1.2,1.2,57,0.00,CLR,,0.00,WeatherDisplay:10.37,2013-01-25 12:23:00,
2013-01-25 07:28:00,22.5,9.1,30.15,SE,135,1.2,0.0,56,0.00,CLR,,0.00,WeatherDisplay:10.37,2013-01-25 12:28:00,
2013-01-25 07:30:00,28.0,23.2,29.83,North,0,0.0,0.0,82,0.00,CLR,,0.00,WeatherDisplay:10.37,2013-01-25 12:30:00,
2013-01-25 07:33:00,22.5,8.7,30.15,SE,135,1.2,1.2,55,0.00,CLR,,0.00,WeatherDisplay:10.37,2013-01-25 12:33:00,
2013-01-25 07:38:00,22.6,8.5,30.16,SE,135,0.0,0.0,54,0.00,CLR,,0.00,WeatherDisplay:10.37,2013-01-25 12:38:00,
2013-01-25 07:40:00,28.0,23.2,29.83,North,0,0.0,0.0,82,0.00,CLR,,0.00,WeatherDisplay:10.37,2013-01-25 12:40:00,
2013-01-25 07:43:00,22.6,7.6,30.15,SE,135,2.3,2.3,52,0.00,CLR,,0.00,WeatherDisplay:10.37,2013-01-25 12:43:00,
2013-01-25 07:48:00,22.8,8.6,30.14,SE,135,1.2,1.2,54,0.00,CLR,,0.00,WeatherDisplay:10.37,2013-01-25 12:48:00,
2013-01-25 07:50:00,28.0,23.2,29.83,North,0,0.0,0.0,82,0.00,CLR,,0.00,WeatherDisplay:10.37,2013-01-25 12:50:00,
2013-01-25 07:53:00,23.0,8.4,30.14,SE,135,1.2,0.0,53,0.00,CLR,,0.00,WeatherDisplay:10.37,2013-01-25 12:53:00,
2013-01-25 07:58:00,23.0,7.5,30.14,SE,135,1.2,1.2,51,0.00,CLR,,0.00,WeatherDisplay:10.37,2013-01-25 12:58:00,
2013-01-25 08:00:00,28.0,23.2,29.83,North,0,0.0,0.0,82,0.00,CLR,,0.00,WeatherDisplay:10.37,2013-01-25 13:00:00,
2013-01-25 08:03:00,23.4,7.4,30.15,SE,135,2.3,2.3,50,0.00,CLR,,0.00,WeatherDisplay:10.37,2013-01-25 13:03:00,
2013-01-25 08:08:00,23.4,7.4,30.13,SE,135,2.3,2.3,50,0.00,CLR,,0.00,WeatherDisplay:10.37,2013-01-25 13:08:00,
2013-01-25 08:10:00,28.0,23.2,29.83,North,0,0.0,0.0,82,0.00,CLR,,0.00,WeatherDisplay:10.37,2013-01-25 13:10:00,
2013-01-25 08:13:00,23.5,6.7,30.13,East,90,4.6,4.6,48,0.00,CLR,,0.00,WeatherDisplay:10.37,2013-01-25 13:13:00,
2013-01-25 08:18:00,23.5,7.2,30.13,SE,135,4.6,4.6,49,0.00,CLR,,0.00,WeatherDisplay:10.37,2013-01-25 13:18:00,
2013-01-25 08:23:00,23.7,6.4,30.13,SSE,158,3.5,3.5,47,0.00,CLR,,0.00,WeatherDisplay:10.37,2013-01-25 13:23:00,
2013-01-25 08:28:00,23.7,5.9,30.13,SE,135,5.8,5.8,46,0.00,CLR,,0.00,WeatherDisplay:10.37,2013-01-25 13:28:00,
2013-01-25 08:33:00,23.9,6.1,30.12,SW,225,5.8,5.8,46,0.00,CLR,,0.00,WeatherDisplay:10.37,2013-01-25 13:33:00,
2013-01-25 08:38:00,24.1,5.8,30.13,SE,135,5.8,5.8,45,0.00,CLR,,0.00,WeatherDisplay:10.37,2013-01-25 13:38:00,
2013-01-25 08:43:00,24.1,5.3,30.12,East,90,6.9,6.9,44,0.00,CLR,,0.00,WeatherDisplay:10.37,2013-01-25 13:43:00,
2013-01-25 08:48:00,24.3,4.9,30.12,SE,135,3.5,3.5,43,0.00,CLR,,0.00,WeatherDisplay:10.37,2013-01-25 13:48:00,
2013-01-25 08:53:00,24.6,5.3,30.13,SE,135,6.9,6.9,43,0.00,CLR,,0.00,WeatherDisplay:10.37,2013-01-25 13:53:00,
2013-01-25 08:58:00,24.6,5.3,30.12,SE,135,5.8,5.8,43,0.00,CLR,,0.00,WeatherDisplay:10.37,2013-01-25 13:58:00,
2013-01-25 09:03:00,25.0,5.1,30.11,South,180,5.8,5.8,42,0.00,CLR,,0.00,WeatherDisplay:10.37,2013-01-25 14:03:00,
2013-01-25 09:08:00,25.0,5.1,30.12,East,90,3.5,3.5,42,0.00,CLR,,0.00,WeatherDisplay:10.37,2013-01-25 14:08:00,
2013-01-25 09:13:00,25.2,5.2,30.12,SE,135,5.8,5.8,42,0.00,CLR,,0.00,WeatherDisplay:10.37,2013-01-25 14:13:00,
2013-01-25 09:18:00,25.2,4.2,30.13,SE,135,5.8,5.8,40,0.00,CLR,,0.00,WeatherDisplay:10.37,2013-01-25 14:18:00,
2013-01-25 09:23:00,25.3,3.2,30.12,SE,135,3.5,3.5,38,0.00,CLR,,0.00,WeatherDisplay:10.37,2013-01-25 14:23:00,
2013-01-25 09:28:00,25.5,3.4,30.12,SE,135,3.5,0.0,38,0.00,CLR,,0.00,WeatherDisplay:10.37,2013-01-25 14:28:00,
2013-01-25 09:33:00,25.9,4.3,30.12,SE,135,4.6,4.6,39,0.00,CLR,,0.00,WeatherDisplay:10.37,2013-01-25 14:33:00,
2013-01-25 09:38:00,25.9,3.1,30.11,South,180,3.5,3.5,37,0.00,CLR,,0.00,WeatherDisplay:10.37,2013-01-25 14:38:00,
2013-01-25 09:43:00,26.4,4.2,30.13,SE,135,3.5,3.5,38,0.00,CLR,,0.00,WeatherDisplay:10.37,2013-01-25 14:43:00,
2013-01-25 09:48:00,26.6,3.2,30.13,SE,135,2.3,2.3,36,0.00,CLR,,0.00,WeatherDisplay:10.37,2013-01-25 14:48:00,
2013-01-25 09:53:00,26.8,2.1,30.13,SE,135,3.5,3.5,34,0.00,CLR,,0.00,WeatherDisplay:10.37,2013-01-25 14:53:00,
2013-01-25 09:58:00,26.6,0.7,30.13,SE,135,5.8,5.8,32,0.00,CLR,,0.00,WeatherDisplay:10.37,2013-01-25 14:58:00,
2013-01-25 10:04:00,26.4,1.2,30.13,SE,135,3.5,3.5,33,0.00,CLR,,0.00,WeatherDisplay:10.37,2013-01-25 15:04:00,
2013-01-25 10:09:00,26.4,1.2,30.13,South,180,2.3,2.3,33,0.00,CLR,,0.00,WeatherDisplay:10.37,2013-01-25 15:09:00,
2013-01-25 10:14:00,26.4,1.2,30.14,SE,135,2.3,2.3,33,0.00,CLR,,0.00,WeatherDisplay:10.37,2013-01-25 15:14:00,
2013-01-25 10:19:00,26.6,1.3,30.13,SE,135,2.3,2.3,33,0.00,CLR,,0.00,WeatherDisplay:10.37,2013-01-25 15:19:00,
2013-01-25 10:24:00,27.0,2.3,30.12,East,90,2.3,0.0,34,0.00,CLR,,0.00,WeatherDisplay:10.37,2013-01-25 15:24:00,
2013-01-25 10:29:00,27.1,1.8,30.12,NW,315,2.3,0.0,33,0.00,CLR,,0.00,WeatherDisplay:10.37,2013-01-25 15:29:00,
2013-01-25 10:34:00,27.3,2.0,30.11,North,0,2.3,2.3,33,0.00,CLR,,0.00,WeatherDisplay:10.37,2013-01-25 15:34:00,
2013-01-25 10:39:00,27.5,1.4,30.11,NW,315,1.2,1.2,32,0.00,CLR,,0.00,WeatherDisplay:10.37,2013-01-25 15:39:00,
2013-01-25 10:45:00,27.7,2.3,30.10,SE,135,3.5,3.5,33,0.00,CLR,,0.00,WeatherDisplay:10.37,2013-01-25 15:45:00,
2013-01-25 10:50:00,27.5,1.4,30.10,SE,135,1.2,1.2,32,0.00,CLR,,0.00,WeatherDisplay:10.37,2013-01-25 15:50:00,
2013-01-25 10:55:00,27.7,1.6,30.10,SE,135,3.5,3.5,32,0.00,CLR,,0.00,WeatherDisplay:10.37,2013-01-25 15:55:00,
2013-01-25 11:00:00,27.5,0.8,30.09,SE,135,3.5,3.5,31,0.00,CLR,,0.00,WeatherDisplay:10.37,2013-01-25 16:00:00,
2013-01-25 11:05:00,27.3,1.3,30.08,SE,135,2.3,2.3,32,0.00,CLR,,0.00,WeatherDisplay:10.37,2013-01-25 16:05:00,
2013-01-25 11:10:00,27.1,0.4,30.08,NE,45,5.8,5.8,31,0.00,CLR,,0.00,WeatherDisplay:10.37,2013-01-25 16:10:00,
2013-01-25 11:15:00,27.0,-0.4,30.08,SE,135,5.8,5.8,30,0.00,CLR,,0.00,WeatherDisplay:10.37,2013-01-25 16:15:00,
2013-01-25 11:20:00,26.8,0.1,30.07,ESE,112,3.5,3.5,31,0.00,CLR,,0.00,WeatherDisplay:10.37,2013-01-25 16:20:00,
2013-01-25 11:25:00,27.0,0.3,30.07,SE,135,5.8,5.8,31,0.00,CLR,,0.00,WeatherDisplay:10.37,2013-01-25 16:25:00,
2013-01-25 11:30:00,26.8,0.1,30.07,SE,135,3.5,3.5,31,0.00,CLR,,0.00,WeatherDisplay:10.37,2013-01-25 16:30:00,
2013-01-25 11:35:00,27.0,1.0,30.06,SE,135,3.5,3.5,32,0.00,CLR,,0.00,WeatherDisplay:10.37,2013-01-25 16:35:00,
2013-01-25 11:40:00,27.0,1.0,30.05,SE,135,3.5,3.5,32,0.00,CLR,,0.00,WeatherDisplay:10.37,2013-01-25 16:40:00,
2013-01-25 11:45:00,27.0,1.6,30.05,SE,135,5.8,5.8,33,0.00,CLR,,0.00,WeatherDisplay:10.37,2013-01-25 16:45:00,
2013-01-25 11:50:00,26.6,3.2,30.04,East,90,8.1,8.1,36,0.00,CLR,,0.00,WeatherDisplay:10.37,2013-01-25 16:50:00,
2013-01-25 11:55:00,26.4,6.4,30.04,East,90,5.8,5.8,42,0.00,CLR,,0.00,WeatherDisplay:10.37,2013-01-25 16:55:00,
2013-01-25 12:00:00,26.1,7.1,30.03,SE,135,4.6,4.6,44,0.00,CLR,,0.00,WeatherDisplay:10.37,2013-01-25 17:00:00,
2013-01-25 12:05:00,25.9,7.4,30.03,SE,135,5.8,5.8,45,0.00,CLR,,0.00,WeatherDisplay:10.37,2013-01-25 17:05:00,
2013-01-25 12:10:00,25.9,7.4,30.03,SE,135,1.6,1.6,45,0.00,CLR,,0.00,WeatherDisplay:10.37,2013-01-25 17:10:00,
2013-01-25 12:15:00,26.1,8.1,30.03,North,0,1.2,1.2,46,0.00,CLR,,0.00,WeatherDisplay:10.37,2013-01-25 17:15:00,
2013-01-25 12:20:00,26.1,9.0,30.02,SE,135,2.3,2.3,48,0.00,CLR,,0.00,WeatherDisplay:10.37,2013-01-25 17:20:00,
2013-01-25 12:25:00,26.1,9.0,30.01,East,90,5.8,5.8,48,0.00,CLR,,0.00,WeatherDisplay:10.37,2013-01-25 17:25:00,
2013-01-25 12:31:00,26.1,9.0,30.00,SE,135,1.2,1.2,48,0.00,CLR,,0.00,WeatherDisplay:10.37,2013-01-25 17:31:00,
2013-01-25 12:36:00,26.1,9.5,30.00,East,90,1.2,1.2,49,0.00,CLR,,0.00,WeatherDisplay:10.37,2013-01-25 17:36:00,
2013-01-25 12:41:00,26.2,11.0,29.99,SE,135,3.5,3.5,52,0.00,CLR,,0.00,WeatherDisplay:10.37,2013-01-25 17:41:00,
2013-01-25 12:46:00,26.2,11.4,29.98,SE,135,5.8,5.8,53,0.00,CLR,,0.00,WeatherDisplay:10.37,2013-01-25 17:46:00,
2013-01-25 12:51:00,26.4,12.4,29.97,SE,135,3.5,3.5,55,0.00,CLR,,0.00,WeatherDisplay:10.37,2013-01-25 17:51:00,
2013-01-25 12:56:00,26.1,11.7,29.96,SE,135,3.5,3.5,54,0.00,CLR,,0.00,WeatherDisplay:10.37,2013-01-25 17:56:00,
2013-01-25 13:01:00,26.1,11.2,29.97,SE,135,1.2,0.0,53,0.00,CLR,,0.00,WeatherDisplay:10.37,2013-01-25 18:01:00,
2013-01-25 13:06:00,26.1,11.2,29.97,East,90,1.2,1.2,53,0.00,CLR,,0.00,WeatherDisplay:10.37,2013-01-25 18:06:00,
2013-01-25 13:11:00,26.2,11.8,29.96,SE,135,2.3,2.3,54,0.00,CLR,,0.00,WeatherDisplay:10.37,2013-01-25 18:11:00,
2013-01-25 13:16:00,26.1,11.2,29.96,SE,135,2.3,2.3,53,0.00,CLR,,0.00,WeatherDisplay:10.37,2013-01-25 18:16:00,
2013-01-25 13:21:00,26.1,11.2,29.96,SE,135,1.2,0.0,53,0.00,CLR,,0.00,WeatherDisplay:10.37,2013-01-25 18:21:00,
2013-01-25 13:26:00,26.1,11.2,29.95,SE,135,2.3,2.3,53,0.00,CLR,,0.00,WeatherDisplay:10.37,2013-01-25 18:26:00,
2013-01-25 13:31:00,25.9,11.9,29.94,SE,135,3.5,3.5,55,0.00,CLR,,0.00,WeatherDisplay:10.37,2013-01-25 18:31:00,
2013-01-25 13:36:00,25.9,12.3,29.93,SE,135,3.5,3.5,56,0.00,CLR,,0.00,WeatherDisplay:10.37,2013-01-25 18:36:00,
2013-01-25 13:41:00,25.9,12.7,29.93,SE,135,2.3,2.3,57,0.00,CLR,,0.00,WeatherDisplay:10.37,2013-01-25 18:41:00,
2013-01-25 13:46:00,25.9,13.5,29.92,SE,135,3.5,3.5,59,0.00,CLR,,0.00,WeatherDisplay:10.37,2013-01-25 18:46:00,
2013-01-25 13:51:00,25.9,14.6,29.91,SSW,202,3.5,3.5,62,0.00,CLR,,0.00,WeatherDisplay:10.37,2013-01-25 18:51:00,
2013-01-25 13:56:00,25.7,14.5,29.92,SE,135,2.3,2.3,62,0.00,CLR,,0.00,WeatherDisplay:10.37,2013-01-25 18:56:00,
2013-01-25 14:01:00,25.7,14.5,29.91,SE,135,3.5,3.5,62,0.00,CLR,,0.00,WeatherDisplay:10.37,2013-01-25 19:01:00,
2013-01-25 14:06:00,25.5,14.3,29.91,SE,135,3.5,3.5,62,0.00,CLR,,0.00,WeatherDisplay:10.37,2013-01-25 19:06:00,
2013-01-25 14:11:00,25.5,14.3,29.92,East,90,0.0,0.0,62,0.00,CLR,,0.00,WeatherDisplay:10.37,2013-01-25 19:11:00,
2013-01-25 14:16:00,25.7,14.5,29.91,SE,135,1.6,0.0,62,0.00,CLR,,0.00,WeatherDisplay:10.37,2013-01-25 19:16:00,
2013-01-25 14:21:00,25.9,14.6,29.92,NW,315,2.3,2.3,62,0.00,CLR,,0.00,WeatherDisplay:10.37,2013-01-25 19:21:00,
2013-01-25 14:26:00,25.9,14.6,29.92,NW,315,3.5,3.5,62,0.00,CLR,,0.00,WeatherDisplay:10.37,2013-01-25 19:26:00,
2013-01-25 14:31:00,25.7,14.8,29.93,NW,315,3.5,3.5,63,0.00,CLR,,0.00,WeatherDisplay:10.37,2013-01-25 19:31:00,
2013-01-25 14:36:00,25.9,15.7,29.93,NW,315,3.5,3.5,65,0.00,CLR,,0.00,WeatherDisplay:10.37,2013-01-25 19:36:00,
2013-01-25 14:41:00,25.9,16.1,29.93,NW,315,3.5,3.5,66,0.00,CLR,,0.00,WeatherDisplay:10.37,2013-01-25 19:41:00,
2013-01-25 14:46:00,25.9,16.8,29.92,NW,315,3.5,3.5,68,0.00,CLR,,0.00,WeatherDisplay:10.37,2013-01-25 19:46:00,
2013-01-25 14:51:00,26.1,17.3,29.91,SE,135,3.5,3.5,69,0.00,CLR,,0.00,WeatherDisplay:10.37,2013-01-25 19:51:00,
2013-01-25 14:56:00,26.1,17.3,29.90,SE,135,1.2,0.0,69,0.00,CLR,,0.00,WeatherDisplay:10.37,2013-01-25 19:56:00,
2013-01-25 15:01:00,25.9,16.8,29.89,SE,135,0.0,0.0,68,0.00,CLR,,0.00,WeatherDisplay:10.37,2013-01-25 20:01:00,
2013-01-25 15:06:00,25.9,16.8,29.89,SE,135,0.0,0.0,68,0.00,CLR,,0.00,WeatherDisplay:10.37,2013-01-25 20:06:00,
2013-01-25 15:11:00,26.1,16.9,29.89,SE,135,0.0,0.0,68,0.00,CLR,,0.00,WeatherDisplay:10.37,2013-01-25 20:11:00,
2013-01-25 15:16:00,26.1,17.6,29.89,SE,135,0.0,0.0,70,0.00,CLR,,0.00,WeatherDisplay:10.37,2013-01-25 20:16:00,
2013-01-25 15:21:00,26.2,18.1,29.88,SE,135,0.0,0.0,71,0.00,CLR,,0.00,WeatherDisplay:10.37,2013-01-25 20:21:00,
2013-01-25 15:26:00,26.2,18.1,29.88,SE,135,0.0,0.0,71,0.00,CLR,,0.00,WeatherDisplay:10.37,2013-01-25 20:26:00,
2013-01-25 15:31:00,26.1,18.3,29.88,SE,135,0.0,0.0,72,0.00,CLR,,0.00,WeatherDisplay:10.37,2013-01-25 20:31:00,
2013-01-25 15:36:00,26.1,18.3,29.88,SE,135,0.0,0.0,72,0.00,CLR,,0.00,WeatherDisplay:10.37,2013-01-25 20:36:00,
2013-01-25 15:41:00,26.1,18.3,29.87,SE,135,0.0,0.0,72,0.00,CLR,,0.00,WeatherDisplay:10.37,2013-01-25 20:41:00,
2013-01-25 15:46:00,26.2,19.1,29.87,SE,135,0.0,0.0,74,0.00,CLR,,0.00,WeatherDisplay:10.37,2013-01-25 20:46:00,
2013-01-25 15:51:00,26.1,19.2,29.87,SE,135,0.0,0.0,75,0.00,CLR,,0.00,WeatherDisplay:10.37,2013-01-25 20:51:00,
2013-01-25 15:56:00,26.1,19.8,29.86,SE,135,0.0,0.0,77,0.00,CLR,,0.00,WeatherDisplay:10.37,2013-01-25 20:56:00,
2013-01-25 16:01:00,26.1,20.4,29.85,SE,135,0.0,0.0,79,0.00,CLR,,0.00,WeatherDisplay:10.37,2013-01-25 21:01:00,
2013-01-25 16:06:00,26.4,21.4,29.85,SE,135,0.0,0.0,81,0.00,CLR,,0.00,WeatherDisplay:10.37,2013-01-25 21:06:00,
2013-01-25 16:11:00,26.2,21.5,29.85,SE,135,0.0,0.0,82,0.00,CLR,,0.00,WeatherDisplay:10.37,2013-01-25 21:11:00,
2013-01-25 16:16:00,26.2,21.5,29.84,SE,135,0.0,0.0,82,0.00,CLR,,0.00,WeatherDisplay:10.37,2013-01-25 21:16:00,
2013-01-25 16:21:00,26.4,22.0,29.84,SE,135,0.0,0.0,83,0.00,CLR,,0.00,WeatherDisplay:10.37,2013-01-25 21:21:00,
2013-01-25 16:26:00,26.8,22.0,29.84,SE,135,0.0,0.0,82,0.00,CLR,,0.00,WeatherDisplay:10.37,2013-01-25 21:26:00,
2013-01-25 16:31:00,27.1,22.4,29.85,SE,135,0.0,0.0,82,0.00,CLR,,0.00,WeatherDisplay:10.37,2013-01-25 21:31:00,
2013-01-25 16:36:00,27.3,22.8,29.85,SE,135,0.0,0.0,83,0.00,CLR,,0.00,WeatherDisplay:10.37,2013-01-25 21:36:00,
2013-01-25 16:41:00,27.3,22.8,29.84,SE,135,0.0,0.0,83,0.00,CLR,,0.00,WeatherDisplay:10.37,2013-01-25 21:41:00,
2013-01-25 16:46:00,27.5,23.0,29.83,SE,135,0.0,0.0,83,0.00,CLR,,0.00,WeatherDisplay:10.37,2013-01-25 21:46:00,
2013-01-25 16:51:00,27.5,23.0,29.83,SE,135,0.0,0.0,83,0.00,CLR,,0.00,WeatherDisplay:10.37,2013-01-25 21:51:00,
2013-01-25 16:56:00,27.7,23.2,29.83,SE,135,0.0,0.0,83,0.00,CLR,,0.00,WeatherDisplay:10.37,2013-01-25 21:56:00,
2013-01-25 17:01:00,27.7,23.2,29.83,SE,135,0.0,0.0,83,0.00,CLR,,0.00,WeatherDisplay:10.37,2013-01-25 22:01:00,
2013-01-25 17:06:00,27.7,22.9,29.83,SE,135,0.0,0.0,82,0.00,CLR,,0.00,WeatherDisplay:10.37,2013-01-25 22:06:00,
2013-01-25 17:11:00,27.9,23.1,29.83,SE,135,0.0,0.0,82,0.00,CLR,,0.00,WeatherDisplay:10.37,2013-01-25 22:11:00,
2013-01-25 17:16:00,27.9,23.1,29.83,SE,135,0.0,0.0,82,0.00,CLR,,0.00,WeatherDisplay:10.37,2013-01-25 22:16:00,
2013-01-25 20:13:00,28.4,25.3,29.81,SE,135,0.0,0.0,88,0.00,CLR,,0.00,WeatherDisplay:10.37,2013-01-26 01:13:00,
2013-01-25 20:18:00,28.2,24.0,29.80,SE,135,0.0,0.0,84,0.00,CLR,,0.00,WeatherDisplay:10.37,2013-01-26 01:18:00,
2013-01-25 20:23:00,28.2,24.0,29.80,SE,135,0.0,0.0,84,0.00,CLR,,0.00,WeatherDisplay:10.37,2013-01-26 01:23:00,
2013-01-25 20:28:00,28.2,24.0,29.80,SE,135,0.0,0.0,84,0.00,CLR,,0.00,WeatherDisplay:10.37,2013-01-26 01:28:00,
2013-01-25 20:33:00,28.2,24.0,29.80,SE,135,0.0,0.0,84,0.00,CLR,,0.00,WeatherDisplay:10.37,2013-01-26 01:33:00,
2013-01-25 20:38:00,28.2,24.0,29.80,SE,135,0.0,0.0,84,0.00,CLR,,0.00,WeatherDisplay:10.37,2013-01-26 01:38:00,
2013-01-25 20:43:00,28.0,23.8,29.79,SE,135,0.0,0.0,84,0.00,CLR,,0.00,WeatherDisplay:10.37,2013-01-26 01:43:00,
2013-01-25 20:48:00,28.0,23.8,29.79,SE,135,0.0,0.0,84,0.00,CLR,,0.00,WeatherDisplay:10.37,2013-01-26 01:48:00,
2013-01-25 20:53:00,28.0,23.8,29.79,SE,135,0.0,0.0,84,0.00,CLR,,0.00,WeatherDisplay:10.37,2013-01-26 01:53:00,
2013-01-25 20:58:00,28.2,24.0,29.79,SE,135,0.0,0.0,84,0.00,CLR,,0.00,WeatherDisplay:10.37,2013-01-26 01:58:00,
2013-01-25 21:03:00,28.2,24.0,29.78,SE,135,0.0,0.0,84,0.00,CLR,,0.00,WeatherDisplay:10.37,2013-01-26 02:03:00,
2013-01-25 21:08:00,28.0,23.8,29.78,SE,135,0.0,0.0,84,0.00,CLR,,0.00,WeatherDisplay:10.37,2013-01-26 02:08:00,
2013-01-25 21:13:00,28.0,23.8,29.78,SE,135,0.0,0.0,84,0.00,CLR,,0.00,WeatherDisplay:10.37,2013-01-26 02:13:00,
2013-01-25 21:18:00,28.0,23.8,29.79,SE,135,0.0,0.0,84,0.00,CLR,,0.00,WeatherDisplay:10.37,2013-01-26 02:18:00,
2013-01-25 21:23:00,28.0,23.8,29.79,SE,135,0.0,0.0,84,0.00,CLR,,0.00,WeatherDisplay:10.37,2013-01-26 02:23:00,
2013-01-25 21:28:00,28.0,23.8,29.80,SE,135,0.0,0.0,84,0.00,CLR,,0.00,WeatherDisplay:10.37,2013-01-26 02:28:00,
2013-01-25 21:33:00,28.0,23.8,29.79,SE,135,0.0,0.0,84,0.00,CLR,,0.00,WeatherDisplay:10.37,2013-01-26 02:33:00,
2013-01-25 21:38:00,28.0,23.8,29.79,SE,135,0.0,0.0,84,0.00,CLR,,0.00,WeatherDisplay:10.37,2013-01-26 02:38:00,
2013-01-25 21:43:00,28.0,23.8,29.80,SE,135,0.0,0.0,84,0.00,CLR,,0.00,WeatherDisplay:10.37,2013-01-26 02:43:00,
2013-01-25 21:48:00,27.9,23.7,29.80,SE,135,0.0,0.0,84,0.00,CLR,,0.00,WeatherDisplay:10.37,2013-01-26 02:48:00,
2013-01-25 21:53:00,27.9,23.7,29.81,SE,135,0.0,0.0,84,0.00,CLR,,0.00,WeatherDisplay:10.37,2013-01-26 02:53:00,
2013-01-25 21:58:00,27.9,23.7,29.81,SE,135,0.0,0.0,84,0.00,CLR,,0.00,WeatherDisplay:10.37,2013-01-26 02:58:00,
2013-01-25 22:03:00,27.9,23.7,29.80,SE,135,0.0,0.0,84,0.00,CLR,,0.00,WeatherDisplay:10.37,2013-01-26 03:03:00,
2013-01-25 22:08:00,27.9,23.7,29.80,SE,135,0.0,0.0,84,0.00,CLR,,0.00,WeatherDisplay:10.37,2013-01-26 03:08:00,
2013-01-25 22:13:00,27.9,23.7,29.80,SE,135,0.0,0.0,84,0.00,CLR,,0.00,WeatherDisplay:10.37,2013-01-26 03:13:00,
2013-01-25 22:18:00,27.9,23.7,29.80,SE,135,0.0,0.0,84,0.00,CLR,,0.00,WeatherDisplay:10.37,2013-01-26 03:18:00,
2013-01-25 22:23:00,27.9,23.7,29.80,SE,135,0.0,0.0,84,0.00,CLR,,0.00,WeatherDisplay:10.37,2013-01-26 03:23:00,
2013-01-25 22:28:00,27.9,23.7,29.80,SE,135,0.0,0.0,84,0.00,CLR,,0.00,WeatherDisplay:10.37,2013-01-26 03:28:00,
2013-01-25 22:33:00,27.9,23.7,29.80,SE,135,0.0,0.0,84,0.00,CLR,,0.00,WeatherDisplay:10.37,2013-01-26 03:33:00,
2013-01-25 22:38:00,28.0,23.8,29.79,SE,135,0.0,0.0,84,0.00,CLR,,0.00,WeatherDisplay:10.37,2013-01-26 03:38:00,
2013-01-25 22:43:00,27.9,23.7,29.79,SE,135,0.0,0.0,84,0.00,CLR,,0.00,WeatherDisplay:10.37,2013-01-26 03:43:00,
2013-01-25 22:48:00,27.9,23.4,29.79,SE,135,0.0,0.0,83,0.00,CLR,,0.00,WeatherDisplay:10.37,2013-01-26 03:48:00,
2013-01-25 22:53:00,27.9,23.4,29.79,SE,135,0.0,0.0,83,0.00,CLR,,0.00,WeatherDisplay:10.37,2013-01-26 03:53:00,
2013-01-25 22:58:00,27.9,23.4,29.79,SE,135,0.0,0.0,83,0.00,CLR,,0.00,WeatherDisplay:10.37,2013-01-26 03:58:00,
2013-01-25 23:03:00,27.9,23.4,29.79,SE,135,0.0,0.0,83,0.00,CLR,,0.00,WeatherDisplay:10.37,2013-01-26 04:03:00,
2013-01-25 23:08:00,27.9,23.4,29.79,SE,135,0.0,0.0,83,0.00,CLR,,0.00,WeatherDisplay:10.37,2013-01-26 04:08:00,
2013-01-25 23:13:00,27.9,23.4,29.79,SE,135,0.0,0.0,83,0.00,CLR,,0.00,WeatherDisplay:10.37,2013-01-26 04:13:00,
2013-01-25 23:18:00,27.9,23.4,29.79,SE,135,0.0,0.0,83,0.00,CLR,,0.00,WeatherDisplay:10.37,2013-01-26 04:18:00,
2013-01-25 23:23:00,27.9,23.4,29.79,SE,135,0.0,0.0,83,0.00,CLR,,0.00,WeatherDisplay:10.37,2013-01-26 04:23:00,
2013-01-25 23:28:00,27.9,23.4,29.78,SE,135,0.0,0.0,83,0.00,CLR,,0.00,WeatherDisplay:10.37,2013-01-26 04:28:00,
2013-01-25 23:33:00,27.9,23.7,29.79,SE,135,0.0,0.0,84,0.00,CLR,,0.00,WeatherDisplay:10.37,2013-01-26 04:33:00,
2013-01-25 23:38:00,27.9,23.7,29.78,SE,135,0.0,0.0,84,0.00,CLR,,0.00,WeatherDisplay:10.37,2013-01-26 04:38:00,
2013-01-25 23:43:00,27.9,23.7,29.78,SE,135,0.0,0.0,84,0.00,CLR,,0.00,WeatherDisplay:10.37,2013-01-26 04:43:00,
2013-01-25 23:48:00,27.9,23.7,29.78,SE,135,0.0,0.0,84,0.00,CLR,,0.00,WeatherDisplay:10.37,2013-01-26 04:48:00,
2013-01-25 23:53:00,27.9,23.7,29.78,SE,135,0.0,0.0,84,0.00,CLR,,0.00,WeatherDisplay:10.37,2013-01-26 04:53:00,
2013-01-25 23:58:00,27.9,23.7,29.77,SE,135,0.0,0.0,84,0.00,CLR,,0.00,WeatherDisplay:10.37,2013-01-26 04:58:00,